DEVICE NETWORK
Gateway Status
13 ESP · realtime ~1s · history 60s
Weather
WS-MOD-01
ONLINE
Actuator
ACT-MOD-01
OFFLINE
Mainboard L3
MB-L3-01
ONLINE
Mainboard L5
MB-L5-01
ONLINE
Remote AC
AC-REMOTE-01
ONLINE
PZEM L3-01
PWR-L3-01
OFFLINE
PZEM L3-02
PWR-L3-02
OFFLINE
PZEM L3-03
PWR-L3-03
OFFLINE
PZEM L3-04
PWR-L3-04
OFFLINE
PZEM L5-01
PWR-L5-01
ONLINE
PZEM L5-02
PWR-L5-02
ONLINE
PZEM L5-03
PWR-L5-03
OFFLINE
PZEM L5-04
PWR-L5-04
OFFLINE
REPORT FILTER
DATABASE HISTORY
Periode & Sensor
REPORT RESULT
Data Sensor
08/08/2026 — 06/09/2026
EXPORT CSV
| NO | TANGGAL | WAKTU | DEVICE | CHANNEL | SENSOR | VALUE | UNIT |
|---|---|---|---|---|---|---|---|
| 3201 | 06/09/2026 | 23:12:00 | MB-L5-01Mainboard Lantai 5 | L5-SHT-01-T | SHT20 1 Temperature | 28.90 | °C |
| 3202 | 06/09/2026 | 23:12:00 | MB-L3-01Mainboard Lantai 3 | L3-SHT-03-RH | SHT20 3 Humidity | 44.80 | %RH |
| 3203 | 06/09/2026 | 23:12:00 | MB-L5-01Mainboard Lantai 5 | L5-LUX-03 | Illuminance / LUX 3 | 0.20 | lux |
| 3204 | 06/09/2026 | 23:12:00 | MB-L5-01Mainboard Lantai 5 | L5-SHT-03-T | SHT20 3 Temperature | 29.20 | °C |
| 3205 | 06/09/2026 | 23:12:00 | MB-L3-01Mainboard Lantai 3 | L3-AI-06 | Analog Input 6 | 3.12 | V |
| 3206 | 06/09/2026 | 23:12:00 | MB-L5-01Mainboard Lantai 5 | L5-AI-03 | Analog Input 3 | 3.05 | V |
| 3207 | 06/09/2026 | 23:12:00 | MB-L5-01Mainboard Lantai 5 | L5-SHT-02-RH | SHT20 2 Humidity | 45.00 | %RH |
| 3208 | 06/09/2026 | 23:12:00 | PWR-L5-02Power Meter L5 PZEM 02 | PZEM-L5-02-FREQ | PZEM L5-02 Frequency | 50.00 | Hz |
| 3209 | 06/09/2026 | 23:12:00 | MB-L3-01Mainboard Lantai 3 | L3-RAD-01 | Radiation 1 | 1.00 | W/m² |
| 3210 | 06/09/2026 | 23:12:00 | PWR-L5-01Power Meter L5 PZEM 01 | PZEM-L5-01-ENERGY | PZEM L5-01 Energy | 0.05 | kWh |
| 3211 | 06/09/2026 | 23:12:00 | MB-L5-01Mainboard Lantai 5 | L5-BGT-02 | Black Globe Temperature 2 | 26.90 | °C |
| 3212 | 06/09/2026 | 23:12:00 | PWR-L5-02Power Meter L5 PZEM 02 | PZEM-L5-02-VOLT | PZEM L5-02 Voltage | 227.10 | V |
| 3213 | 06/09/2026 | 23:12:00 | MB-L5-01Mainboard Lantai 5 | L5-AI-06 | Analog Input 6 | 3.05 | V |
| 3214 | 06/09/2026 | 23:12:00 | AC-REMOTE-01Remote AC | AC-POWER | AC Power State | 1.00 | state |
| 3215 | 06/09/2026 | 23:12:00 | MB-L3-01Mainboard Lantai 3 | L3-AI-04 | Analog Input 4 | 3.12 | V |
| 3216 | 06/09/2026 | 23:12:00 | MB-L3-01Mainboard Lantai 3 | L3-LUX-05 | Illuminance / LUX 5 | 0.30 | lux |
| 3217 | 06/09/2026 | 23:12:00 | MB-L5-01Mainboard Lantai 5 | L5-RAD-02 | Radiation 2 | 1.00 | W/m² |
| 3218 | 06/09/2026 | 23:12:00 | MB-L5-01Mainboard Lantai 5 | L5-HFT-01 | Heat Flow Temperature 1 | 24.60 | °C |
| 3219 | 06/09/2026 | 23:12:00 | MB-L5-01Mainboard Lantai 5 | L5-LUX-04 | Illuminance / LUX 4 | 0.10 | lux |
| 3220 | 06/09/2026 | 23:12:00 | WS-MOD-01Weather Station Module | WS-RH | Kelembapan Udara | 75.50 | %RH |
| 3221 | 06/09/2026 | 23:12:00 | MB-L5-01Mainboard Lantai 5 | L5-RAD-01 | Radiation 1 | 1.00 | W/m² |
| 3222 | 06/09/2026 | 23:12:00 | MB-L5-01Mainboard Lantai 5 | L5-AI-01 | Analog Input 1 | 3.05 | V |
| 3223 | 06/09/2026 | 23:12:00 | MB-L5-01Mainboard Lantai 5 | L5-LUX-02 | Illuminance / LUX 2 | 0.10 | lux |
| 3224 | 06/09/2026 | 23:12:00 | PWR-L5-01Power Meter L5 PZEM 01 | PZEM-L5-01-FREQ | PZEM L5-01 Frequency | 50.00 | Hz |
| 3225 | 06/09/2026 | 23:12:00 | PWR-L5-02Power Meter L5 PZEM 02 | PZEM-L5-02-ENERGY | PZEM L5-02 Energy | 0.04 | kWh |
| 3226 | 06/09/2026 | 23:12:00 | MB-L3-01Mainboard Lantai 3 | L3-LUX-01 | Illuminance / LUX 1 | 0.20 | lux |
| 3227 | 06/09/2026 | 23:12:00 | MB-L5-01Mainboard Lantai 5 | L5-LUX-06 | Illuminance / LUX 6 | 0.10 | lux |
| 3228 | 06/09/2026 | 23:12:00 | MB-L3-01Mainboard Lantai 3 | L3-AI-02 | Analog Input 2 | 3.12 | V |
| 3229 | 06/09/2026 | 23:12:00 | MB-L5-01Mainboard Lantai 5 | L5-AI-04 | Analog Input 4 | 3.05 | V |
| 3230 | 06/09/2026 | 23:12:00 | MB-L3-01Mainboard Lantai 3 | L3-SHT-01-RH | SHT20 1 Humidity | 45.00 | %RH |
| 3231 | 06/09/2026 | 23:12:00 | MB-L3-01Mainboard Lantai 3 | L3-LUX-03 | Illuminance / LUX 3 | 0.20 | lux |
| 3232 | 06/09/2026 | 23:12:00 | PWR-L5-01Power Meter L5 PZEM 01 | PZEM-L5-01-PF | PZEM L5-01 Power Factor | 0.38 | |
| 3233 | 06/09/2026 | 23:11:00 | AC-REMOTE-01Remote AC | AC-MODE | AC Operating Mode | 1.00 | code |
| 3234 | 06/09/2026 | 23:11:00 | MB-L3-01Mainboard Lantai 3 | L3-SHT-01-T | SHT20 1 Temperature | 28.90 | °C |
| 3235 | 06/09/2026 | 23:11:00 | MB-L3-01Mainboard Lantai 3 | L3-SHT-02-T | SHT20 2 Temperature | 29.00 | °C |
| 3236 | 06/09/2026 | 23:11:00 | PWR-L5-02Power Meter L5 PZEM 02 | PZEM-L5-02-PF | PZEM L5-02 Power Factor | 0.00 | |
| 3237 | 06/09/2026 | 23:11:00 | MB-L5-01Mainboard Lantai 5 | L5-BGT-01 | Black Globe Temperature 1 | 27.00 | °C |
| 3238 | 06/09/2026 | 23:11:00 | MB-L5-01Mainboard Lantai 5 | L5-AI-05 | Analog Input 5 | 3.05 | V |
| 3239 | 06/09/2026 | 23:11:00 | MB-L3-01Mainboard Lantai 3 | L3-AI-03 | Analog Input 3 | 3.12 | V |
| 3240 | 06/09/2026 | 23:11:00 | WS-MOD-01Weather Station Module | WS-WIND | Kecepatan Angin | 6.34 | m/s |
| 3241 | 06/09/2026 | 23:11:00 | PWR-L5-01Power Meter L5 PZEM 01 | PZEM-L5-01-CURR | PZEM L5-01 Current | 0.12 | A |
| 3242 | 06/09/2026 | 23:11:00 | MB-L5-01Mainboard Lantai 5 | L5-ST-02 | Surface Temperature 2 | 24.20 | °C |
| 3243 | 06/09/2026 | 23:11:00 | MB-L5-01Mainboard Lantai 5 | L5-SHT-01-RH | SHT20 1 Humidity | 45.30 | %RH |
| 3244 | 06/09/2026 | 23:11:00 | PWR-L5-02Power Meter L5 PZEM 02 | PZEM-L5-02-CURR | PZEM L5-02 Current | 0.00 | A |
| 3245 | 06/09/2026 | 23:11:00 | MB-L3-01Mainboard Lantai 3 | L3-LUX-06 | Illuminance / LUX 6 | 0.30 | lux |
| 3246 | 06/09/2026 | 23:11:00 | WS-MOD-01Weather Station Module | WS-PRES | Tekanan Udara | 912.00 | hPa |
| 3247 | 06/09/2026 | 23:11:00 | MB-L5-01Mainboard Lantai 5 | L5-SHT-02-T | SHT20 2 Temperature | 29.20 | °C |
| 3248 | 06/09/2026 | 23:11:00 | MB-L3-01Mainboard Lantai 3 | L3-LUX-04 | Illuminance / LUX 4 | 0.10 | lux |
| 3249 | 06/09/2026 | 23:11:00 | AC-REMOTE-01Remote AC | AC-SETPOINT | AC Set Temperature | 23.00 | °C |
| 3250 | 06/09/2026 | 23:11:00 | PWR-L5-01Power Meter L5 PZEM 01 | PZEM-L5-01-POWER | PZEM L5-01 Active Power | 10.50 | W |
| 3251 | 06/09/2026 | 23:11:00 | MB-L3-01Mainboard Lantai 3 | L3-AI-01 | Analog Input 1 | 3.12 | V |
| 3252 | 06/09/2026 | 23:11:00 | MB-L5-01Mainboard Lantai 5 | L5-SHT-03-RH | SHT20 3 Humidity | 45.00 | %RH |
| 3253 | 06/09/2026 | 23:11:00 | MB-L3-01Mainboard Lantai 3 | L3-SHT-02-RH | SHT20 2 Humidity | 44.60 | %RH |
| 3254 | 06/09/2026 | 23:11:00 | MB-L5-01Mainboard Lantai 5 | L5-SHT-01-T | SHT20 1 Temperature | 29.00 | °C |
| 3255 | 06/09/2026 | 23:11:00 | MB-L3-01Mainboard Lantai 3 | L3-SHT-03-RH | SHT20 3 Humidity | 45.00 | %RH |
| 3256 | 06/09/2026 | 23:11:00 | MB-L5-01Mainboard Lantai 5 | L5-LUX-03 | Illuminance / LUX 3 | 0.20 | lux |
| 3257 | 06/09/2026 | 23:11:00 | MB-L5-01Mainboard Lantai 5 | L5-SHT-03-T | SHT20 3 Temperature | 29.20 | °C |
| 3258 | 06/09/2026 | 23:11:00 | MB-L3-01Mainboard Lantai 3 | L3-AI-06 | Analog Input 6 | 3.12 | V |
| 3259 | 06/09/2026 | 23:11:00 | MB-L5-01Mainboard Lantai 5 | L5-AI-03 | Analog Input 3 | 3.05 | V |
| 3260 | 06/09/2026 | 23:11:00 | MB-L5-01Mainboard Lantai 5 | L5-SHT-02-RH | SHT20 2 Humidity | 44.70 | %RH |
| 3261 | 06/09/2026 | 23:11:00 | PWR-L5-02Power Meter L5 PZEM 02 | PZEM-L5-02-FREQ | PZEM L5-02 Frequency | 50.00 | Hz |
| 3262 | 06/09/2026 | 23:11:00 | MB-L3-01Mainboard Lantai 3 | L3-RAD-01 | Radiation 1 | 1.00 | W/m² |
| 3263 | 06/09/2026 | 23:11:00 | PWR-L5-01Power Meter L5 PZEM 01 | PZEM-L5-01-ENERGY | PZEM L5-01 Energy | 0.05 | kWh |
| 3264 | 06/09/2026 | 23:11:00 | MB-L5-01Mainboard Lantai 5 | L5-BGT-02 | Black Globe Temperature 2 | 26.90 | °C |
| 3265 | 06/09/2026 | 23:11:00 | PWR-L5-02Power Meter L5 PZEM 02 | PZEM-L5-02-VOLT | PZEM L5-02 Voltage | 227.10 | V |
| 3266 | 06/09/2026 | 23:11:00 | MB-L5-01Mainboard Lantai 5 | L5-AI-06 | Analog Input 6 | 3.05 | V |
| 3267 | 06/09/2026 | 23:11:00 | AC-REMOTE-01Remote AC | AC-POWER | AC Power State | 1.00 | state |
| 3268 | 06/09/2026 | 23:11:00 | MB-L3-01Mainboard Lantai 3 | L3-AI-04 | Analog Input 4 | 3.12 | V |
| 3269 | 06/09/2026 | 23:11:00 | MB-L3-01Mainboard Lantai 3 | L3-LUX-05 | Illuminance / LUX 5 | 0.30 | lux |
| 3270 | 06/09/2026 | 23:11:00 | MB-L5-01Mainboard Lantai 5 | L5-RAD-02 | Radiation 2 | 1.00 | W/m² |
| 3271 | 06/09/2026 | 23:11:00 | MB-L5-01Mainboard Lantai 5 | L5-HFT-01 | Heat Flow Temperature 1 | 24.60 | °C |
| 3272 | 06/09/2026 | 23:11:00 | MB-L5-01Mainboard Lantai 5 | L5-LUX-04 | Illuminance / LUX 4 | 0.10 | lux |
| 3273 | 06/09/2026 | 23:11:00 | WS-MOD-01Weather Station Module | WS-RH | Kelembapan Udara | 75.40 | %RH |
| 3274 | 06/09/2026 | 23:11:00 | MB-L5-01Mainboard Lantai 5 | L5-RAD-01 | Radiation 1 | 1.00 | W/m² |
| 3275 | 06/09/2026 | 23:11:00 | MB-L5-01Mainboard Lantai 5 | L5-AI-01 | Analog Input 1 | 3.05 | V |
| 3276 | 06/09/2026 | 23:11:00 | MB-L5-01Mainboard Lantai 5 | L5-LUX-02 | Illuminance / LUX 2 | 0.10 | lux |
| 3277 | 06/09/2026 | 23:11:00 | PWR-L5-01Power Meter L5 PZEM 01 | PZEM-L5-01-FREQ | PZEM L5-01 Frequency | 50.00 | Hz |
| 3278 | 06/09/2026 | 23:11:00 | PWR-L5-02Power Meter L5 PZEM 02 | PZEM-L5-02-ENERGY | PZEM L5-02 Energy | 0.04 | kWh |
| 3279 | 06/09/2026 | 23:11:00 | MB-L3-01Mainboard Lantai 3 | L3-LUX-01 | Illuminance / LUX 1 | 0.20 | lux |
| 3280 | 06/09/2026 | 23:11:00 | MB-L5-01Mainboard Lantai 5 | L5-LUX-06 | Illuminance / LUX 6 | 0.10 | lux |
| 3281 | 06/09/2026 | 23:11:00 | MB-L3-01Mainboard Lantai 3 | L3-AI-02 | Analog Input 2 | 3.12 | V |
| 3282 | 06/09/2026 | 23:11:00 | MB-L5-01Mainboard Lantai 5 | L5-AI-04 | Analog Input 4 | 3.05 | V |
| 3283 | 06/09/2026 | 23:11:00 | MB-L3-01Mainboard Lantai 3 | L3-SHT-01-RH | SHT20 1 Humidity | 45.20 | %RH |
| 3284 | 06/09/2026 | 23:11:00 | MB-L3-01Mainboard Lantai 3 | L3-LUX-03 | Illuminance / LUX 3 | 0.20 | lux |
| 3285 | 06/09/2026 | 23:11:00 | PWR-L5-01Power Meter L5 PZEM 01 | PZEM-L5-01-PF | PZEM L5-01 Power Factor | 0.38 | |
| 3286 | 06/09/2026 | 23:11:00 | WS-MOD-01Weather Station Module | WS-TEMP | Suhu Udara | 20.30 | °C |
| 3287 | 06/09/2026 | 23:11:00 | AC-REMOTE-01Remote AC | AC-FAN | AC Fan Speed | 0.00 | code |
| 3288 | 06/09/2026 | 23:11:00 | MB-L5-01Mainboard Lantai 5 | L5-BGT-03 | Black Globe Temperature 3 | 26.70 | °C |
| 3289 | 06/09/2026 | 23:11:00 | MB-L3-01Mainboard Lantai 3 | L3-SHT-03-T | SHT20 3 Temperature | 29.10 | °C |
| 3290 | 06/09/2026 | 23:11:00 | MB-L5-01Mainboard Lantai 5 | L5-ST-01 | Surface Temperature 1 | 24.90 | °C |
| 3291 | 06/09/2026 | 23:11:00 | MB-L5-01Mainboard Lantai 5 | L5-LUX-01 | Illuminance / LUX 1 | 0.00 | lux |
| 3292 | 06/09/2026 | 23:11:00 | WS-MOD-01Weather Station Module | WS-DIR | Arah Angin | 94.40 | ° |
| 3293 | 06/09/2026 | 23:11:00 | MB-L3-01Mainboard Lantai 3 | L3-RAD-02 | Radiation 2 | 1.00 | W/m² |
| 3294 | 06/09/2026 | 23:11:00 | MB-L3-01Mainboard Lantai 3 | L3-AI-05 | Analog Input 5 | 3.12 | V |
| 3295 | 06/09/2026 | 23:11:00 | MB-L5-01Mainboard Lantai 5 | L5-HFT-02 | Heat Flow Temperature 2 | 24.00 | °C |
| 3296 | 06/09/2026 | 23:11:00 | MB-L3-01Mainboard Lantai 3 | L3-LUX-02 | Illuminance / LUX 2 | 0.20 | lux |
| 3297 | 06/09/2026 | 23:11:00 | PWR-L5-02Power Meter L5 PZEM 02 | PZEM-L5-02-POWER | PZEM L5-02 Active Power | 0.00 | W |
| 3298 | 06/09/2026 | 23:11:00 | MB-L5-01Mainboard Lantai 5 | L5-AI-02 | Analog Input 2 | 3.05 | V |
| 3299 | 06/09/2026 | 23:11:00 | PWR-L5-01Power Meter L5 PZEM 01 | PZEM-L5-01-VOLT | PZEM L5-01 Voltage | 227.30 | V |
| 3300 | 06/09/2026 | 23:10:00 | MB-L3-01Mainboard Lantai 3 | L3-LUX-06 | Illuminance / LUX 6 | 0.30 | lux |
Menampilkan maksimal 100 data per halaman